TimeAKDT,TemperatureF,Dew PointF,Humidity,Sea Level PressureIn,VisibilityMPH,Wind Direction,Wind SpeedMPH,Gust SpeedMPH,PrecipitationIn,Events,Conditions,WindDirDegrees,DateUTC
12:53 AM,27.0,24.1,89,29.53,10.0,NE,6.9,-,N/A,,Overcast,50,2013-10-19 08:53:00
1:21 AM,26.6,24.8,93,29.53,10.0,NE,5.8,-,N/A,,Overcast,50,2013-10-19 09:21:00
1:53 AM,27.0,24.1,89,29.54,7.0,NE,6.9,-,0.00,Snow,Light Snow,40,2013-10-19 09:53:00
2:00 AM,26.6,24.8,93,29.53,4.0,NNE,8.1,-,0.00,Snow,Light Snow,30,2013-10-19 10:00:00
2:04 AM,26.6,24.8,93,29.53,2.5,NNE,8.1,-,0.00,Snow,Light Snow,30,2013-10-19 10:04:00
2:15 AM,26.6,24.8,93,29.53,1.8,NE,9.2,-,0.00,Snow,Light Snow,40,2013-10-19 10:15:00
2:23 AM,26.6,24.8,93,29.53,2.5,NE,9.2,-,0.00,Snow,Light Snow,40,2013-10-19 10:23:00
2:31 AM,26.6,24.8,93,29.53,3.0,NE,8.1,-,0.00,Snow,Light Snow,40,2013-10-19 10:31:00
2:53 AM,27.0,24.1,89,29.53,5.0,NNE,9.2,-,0.00,Snow,Light Snow,30,2013-10-19 10:53:00
3:53 AM,27.0,24.1,89,29.51,9.0,NNE,9.2,-,0.00,Snow,Light Snow,30,2013-10-19 11:53:00
4:53 AM,28.0,24.1,85,29.50,10.0,NNE,13.8,-,0.00,,Overcast,30,2013-10-19 12:53:00
5:25 AM,28.4,24.8,86,29.49,10.0,NE,11.5,-,N/A,,Overcast,40,2013-10-19 13:25:00
5:53 AM,28.9,26.1,89,29.49,10.0,NE,10.4,-,N/A,,Overcast,50,2013-10-19 13:53:00
6:18 AM,28.4,26.6,93,29.48,10.0,NE,11.5,-,N/A,,Overcast,40,2013-10-19 14:18:00
6:53 AM,28.9,26.1,89,29.48,10.0,NE,11.5,-,N/A,,Overcast,50,2013-10-19 14:53:00
7:53 AM,30.0,27.0,88,29.48,7.0,NE,12.7,-,N/A,,Overcast,40,2013-10-19 15:53:00
8:04 AM,30.2,26.6,86,29.47,8.0,NE,11.5,-,N/A,,Overcast,50,2013-10-19 16:04:00
8:13 AM,30.2,26.6,86,29.47,9.0,NE,10.4,-,N/A,,Overcast,50,2013-10-19 16:13:00
8:53 AM,30.0,27.0,88,29.47,4.0,NE,15.0,-,0.00,Snow,Light Snow,40,2013-10-19 16:53:00
9:18 AM,30.2,28.4,93,29.46,3.0,NE,16.1,-,0.00,Snow,Light Snow,40,2013-10-19 17:18:00
9:45 AM,30.2,28.4,93,29.45,2.0,NNE,17.3,-,0.00,Snow,Light Snow,30,2013-10-19 17:45:00
9:53 AM,30.9,28.0,89,29.45,3.0,NNE,17.3,-,0.00,Snow,Light Snow,30,2013-10-19 17:53:00
9:59 AM,30.2,28.4,93,29.45,2.5,NNE,15.0,-,0.00,Snow,Light Snow,30,2013-10-19 17:59:00
10:21 AM,30.2,28.4,93,29.44,2.5,NNE,18.4,-,0.00,Snow,Light Snow,30,2013-10-19 18:21:00
10:30 AM,30.2,28.4,93,29.44,3.0,NE,17.3,-,0.00,Snow,Light Snow,40,2013-10-19 18:30:00
10:53 AM,32.0,28.9,88,29.44,9.0,NE,19.6,-,0.00,Snow,Light Snow,40,2013-10-19 18:53:00
11:13 AM,32.0,28.4,87,29.43,9.0,NE,20.7,-,0.00,,Overcast,40,2013-10-19 19:13:00
11:37 AM,32.0,30.2,93,29.43,2.0,NNE,24.2,-,0.00,Rain,Light Freezing Rain,30,2013-10-19 19:37:00
11:51 AM,32.0,30.2,93,29.42,3.0,NNE,21.9,-,0.00,Rain,Light Freezing Rain,30,2013-10-19 19:51:00
11:53 AM,32.0,30.0,92,29.43,3.0,NNE,24.2,-,0.00,Rain,Light Freezing Rain,30,2013-10-19 19:53:00
12:53 PM,33.1,30.9,92,29.44,10.0,NE,15.0,24.2,0.00,Rain,Light Freezing Rain,40,2013-10-19 20:53:00
1:00 PM,33.8,30.2,87,29.44,10.0,NE,15.0,-,0.00,,Overcast,40,2013-10-19 21:00:00
1:53 PM,33.1,30.9,92,29.42,9.0,NE,19.6,26.5,0.00,,Overcast,40,2013-10-19 21:53:00
2:03 PM,33.8,30.2,87,29.42,7.0,NE,19.6,26.5,N/A,,Overcast,40,2013-10-19 22:03:00
2:53 PM,33.1,30.9,92,29.41,10.0,NE,20.7,-,N/A,,Overcast,40,2013-10-19 22:53:00
3:53 PM,33.1,30.9,92,29.41,10.0,NE,20.7,-,0.01,,Overcast,40,2013-10-19 23:53:00
4:31 PM,33.8,30.2,87,29.39,9.0,NNE,24.2,-,N/A,,Overcast,30,2013-10-20 00:31:00
4:48 PM,33.8,30.2,87,29.38,2.5,NNE,26.5,-,N/A,,Overcast,30,2013-10-20 00:48:00
4:53 PM,33.1,30.0,89,29.39,2.5,NNE,26.5,-,N/A,,Overcast,30,2013-10-20 00:53:00
5:33 PM,33.8,30.2,87,29.38,1.8,NNE,27.6,-,0.00,Snow,Light Snow,30,2013-10-20 01:33:00
5:43 PM,33.8,30.2,87,29.38,2.5,NNE,26.5,-,0.00,,Overcast,30,2013-10-20 01:43:00
5:53 PM,33.1,30.0,89,29.38,3.0,NNE,27.6,-,0.00,,Overcast,30,2013-10-20 01:53:00
6:25 PM,33.8,30.2,87,29.38,2.5,NNE,24.2,-,N/A,,Overcast,30,2013-10-20 02:25:00
6:43 PM,33.8,30.2,87,29.38,4.0,NNE,24.2,32.2,N/A,,Overcast,30,2013-10-20 02:43:00
6:53 PM,33.1,30.9,92,29.39,5.0,NNE,23.0,-,N/A,,Overcast,30,2013-10-20 02:53:00
7:53 PM,33.1,30.0,89,29.38,9.0,NNE,25.3,-,N/A,,Overcast,30,2013-10-20 03:53:00
8:53 PM,33.1,30.9,92,29.38,5.0,NNE,23.0,-,0.00,,Overcast,30,2013-10-20 04:53:00
9:53 PM,33.1,30.9,92,29.38,10.0,NE,19.6,26.5,0.00,,Overcast,40,2013-10-20 05:53:00
10:53 PM,33.1,30.0,89,29.39,10.0,NE,19.6,-,N/A,,Overcast,40,2013-10-20 06:53:00
11:53 PM,33.1,30.0,89,29.39,10.0,NE,19.6,-,N/A,,Overcast,40,2013-10-20 07:53:00